Location: Mesa
(33.4220°N, 111.8220°W)
Time: 04:00:52
(UTC-07:00)

Hubble Space Telescope - Pass Details

Date: 23 November 2019
Orbit: 536 x 540 km, 28.5° (Epoch: 10 December)

Event Time Altitude Azimuth Distance (km) Brightness Sun altitude
Rises 19:57:14 0° 265° (W) 2,671 5.4 -32.3°
Reaches altitude 10° 19:59:39 10° 255° (WSW) 1,780 4.2 -32.8°
Enters shadow 20:00:51 17° 245° (WSW) 1,384 3.5 -33.0°
